{"data":{"norad_id":69230,"epoch":"2026-09-19T23:27:56.621088Z","epoch_age_seconds":72099,"freshness":"FRESH","line1":"1 69230U 26115V   26262.97773867  .00018906  00000+0  58625-3 0  9999","line2":"2 69230  97.2842 279.1299 0000955  73.6225 286.5123 15.33456541 19214","mean_motion":15.33456541,"eccentricity":9.55e-5,"inclination_deg":97.2842,"raan_deg":279.1299,"arg_perigee_deg":73.6225,"mean_anomaly_deg":286.5123,"bstar":0.00058625,"rev_number":1921,"period_min":93.905497906119,"perigee_km":464.85526861986,"apogee_km":466.16240497469,"semimajor_km":6843.6458367973,"source":"CELESTRAK","updated_at":"2026-09-20T09:00:44.105681Z"}}